AB8YS Weather Reports


Display with metric or nautical units.
time (UTC)temp
F
wind
direction
speed
MPH
gust
MPH
rain 1hr
in
rain 24hr
in
rain mn
in
humidity
%
barometer
mb
20260507044514 44 63 0.0 0.0 0.00 0.00 0.00 93 1014.8
20260507043013 44 63 0.0 0.0 0.00 0.00 0.00 92 1014.7
20260507041511 45 63 0.0 0.0 0.00 0.00 0.00 92 1014.7
20260507040010 45 62 0.0 0.0 0.00 0.00 0.00 91 1014.5
20260507034506 45 62 0.0 0.0 0.00 0.00 0.00 91 1014.5
20260507033006 45 63 0.0 0.0 0.00 0.00 0.00 89 1014.6
20260507031506 45 62 0.0 0.0 0.00 0.00 0.00 88 1014.7
20260507030006 46 63 0.0 0.0 0.00 0.00 0.00 86 1014.8
20260507024504 46 63 0.0 0.0 0.00 0.00 0.00 84 1014.8
20260507023003 47 63 0.0 0.0 0.00 0.00 0.00 83 1014.8
20260507021504 48 63 0.0 0.0 0.00 0.00 0.00 82 1014.6
20260507020104 48 62 0.0 0.0 0.00 0.00 0.00 80 1014.5
20260507014607 49 62 0.0 0.0 0.00 0.00 0.00 80 1014.2
20260507013056 50 63 0.0 0.0 0.00 0.00 0.00 78 1014.1
20260507011603 50 63 0.0 0.0 0.00 0.00 0.00 78 1014.1
20260507010056 51 63 0.0 0.0 0.00 0.00 0.00 76 1014.0
20260507004553 51 62 0.0 0.0 0.00 0.00 0.00 72 1014.0
20260507003052 52 63 0.0 0.0 0.00 0.00 0.00 69 1013.6
20260507001606 52 62 0.0 0.0 0.00 0.00 0.00 67 1013.4
20260507000057 53 63 0.0 0.0 0.00 0.00 0.00 67 1013.3
20260506234549 54 63 0.0 1.0 0.00 0.00 0.00 65 1013.4
20260506233049 54 88 0.0 1.0 0.00 0.00 0.00 62 1013.1
20260506231549 55 24 0.0 5.0 0.00 0.00 0.00 60 1013.2
20260506230052 55 288 0.0 0.0 0.00 0.00 0.00 59 1013.2
20260506224548 55 256 0.0 1.0 0.00 0.00 0.00 59 1013.4
20260506223047 55 233 0.0 1.0 0.00 0.00 0.00 59 1013.5
20260506221546 55 234 0.0 0.0 0.00 0.00 0.00 58 1013.6
20260506220057 56 235 0.0 1.0 0.00 0.00 0.00 62 1013.7
20260506214546 56 235 0.0 1.0 0.00 0.00 0.00 59 1013.5
20260506213044 56 226 0.0 1.0 0.00 0.00 0.00 59 1013.3
20260506211542 56 226 0.0 1.0 0.00 0.00 0.00 59 1013.2
20260506210041 56 140 0.0 0.0 0.00 0.00 0.00 59 1013.0
20260506204540 56 140 0.0 1.0 0.00 0.00 0.00 59 1013.0
20260506203113 56 25 0.0 1.0 0.00 0.00 0.00 57 1013.0
20260506201539 57 357 0.0 1.0 0.00 0.00 0.00 56 1013.1
20260506200046 57 282 0.0 1.0 0.00 0.00 0.00 58 1013.0
20260506194538 57 297 0.0 1.0 0.00 0.00 0.00 57 1012.9
20260506193037 57 323 0.0 3.0 0.00 0.00 0.00 56 1012.6
20260506191537 57 303 0.0 2.0 0.00 0.00 0.00 55 1012.7
20260506190045 58 273 0.0 1.0 0.00 0.00 0.00 59 1012.7
20260506184543 58 264 0.0 2.0 0.00 0.00 0.00 58 1012.6
20260506183036 59 295 0.0 7.0 0.00 0.00 0.00 54 1012.6
20260506181534 59 38 1.0 4.0 0.00 0.00 0.00 56 1012.4
20260506180036 59 312 0.0 2.0 0.00 0.00 0.00 58 1012.6
20260506174531 59 276 0.0 2.0 0.00 0.00 0.00 57 1012.7
20260506173037 58 45 0.0 4.0 0.00 0.00 0.00 56 1012.8
20260506171528 58 330 0.0 2.0 0.00 0.00 0.00 57 1012.9
20260506170027 58 291 0.0 2.0 0.00 0.00 0.00 58 1012.9
20260506164524 57 355 0.0 4.0 0.00 0.00 0.00 59 1013.0
20260506163039 57 34 0.0 2.0 0.00 0.00 0.00 64 1012.7
20260506161526 57 79 1.0 5.0 0.00 0.00 0.00 64 1012.8
20260506160021 57 60 0.0 3.0 0.00 0.00 0.00 66 1012.7
20260506154529 56 278 0.0 3.0 0.00 0.00 0.00 66 1013.1
20260506153015 55 264 0.0 1.0 0.00 0.00 0.00 68 1012.9
20260506151514 54 89 0.0 2.0 0.00 0.00 0.00 72 1012.4
20260506150007 53 325 0.0 4.0 0.00 0.00 0.00 73 1012.1
20260506144503 52 279 0.0 2.0 0.00 0.00 0.00 78 1011.9
20260506143100 51 312 0.0 4.0 0.00 0.00 0.00 81 1011.9
20260506141557 49 36 0.0 1.0 0.00 0.00 0.00 90 1011.6
20260506140058 47 51 0.0 2.0 0.00 0.00 0.00 94 1011.9
20260506134554 46 347 0.0 0.0 0.00 0.00 0.00 96 1011.9
20260506133052 46 347 0.0 1.0 0.00 0.00 0.00 97 1011.5
20260506131551 45 84 0.0 0.0 0.00 0.00 0.00 97 1011.2
20260506130049 45 58 0.0 1.0 0.00 0.00 0.00 98 1011.2
20260506124548 45 17 0.0 1.0 0.00 0.00 0.00 98 1010.7
20260506123049 44 17 0.0 0.0 0.00 0.00 0.00 98 1010.8
20260506121554 44 17 0.0 0.0 0.00 0.00 0.00 98 1010.9
20260506120043 43 16 0.0 1.0 0.00 0.00 0.00 98 1010.2
20260506114541 43 16 0.0 1.0 0.00 0.00 0.00 98 1010.0
20260506113040 43 74 0.0 2.0 0.00 0.00 0.00 98 1009.4
20260506111539 43 94 0.0 1.0 0.00 0.00 0.00 98 1009.2
20260506110040 43 74 0.0 1.0 0.00 0.00 0.00 98 1009.6
20260506104535 44 72 0.0 0.0 0.00 0.00 0.00 98 1009.3
20260506103033 44 91 0.0 1.0 0.00 0.00 0.00 98 1008.4
20260506101533 44 23 0.0 1.0 0.00 0.00 0.00 98 1008.5
20260506100034 44 104 0.0 0.0 0.00 0.00 0.00 98 1008.7
20260506094529 44 104 0.0 0.0 0.00 0.00 0.00 98 1008.0
20260506093027 44 66 0.0 2.0 0.00 0.00 0.00 98 1007.6
20260506091526 44 115 0.0 2.0 0.00 0.00 0.00 98 1007.6
20260506090025 44 79 0.0 1.0 0.00 0.00 0.00 98 1007.7
20260506084534 43 345 0.0 1.0 0.00 0.00 0.00 98 1007.6
20260506083030 44 65 0.0 3.0 0.00 0.00 0.00 98 1007.6
20260506081523 44 88 0.0 3.0 0.00 0.00 0.00 98 1007.5
20260506073018 45 343 0.0 2.0 0.00 0.00 0.00 98 1007.3
20260506071519 45 71 0.0 3.0 0.00 0.00 0.00 98 1007.5
20260506061509 46 347 0.0 4.0 0.00 0.00 0.00 98 1006.7
20260506050116 49 36 0.0 2.0 0.00 0.00 0.00 98 1006.7
20260506044557 49 35 0.0 3.0 0.00 0.00 0.00 98 1006.5